Voltar ao catálogo

METEOR 2-20 DEB

AtivoPO
NORAD 59998·DEBRIS·🇷🇺 Russia

Lançado Sep 28, 1990 de Plesetsk Cosmodrome

Loading…

Próximas Passagens (próximas 24 horas)

TLE

AtualizadoSource: Space-Track

Época: Sep 14, 2026, 01:15 UTC

1 59998U 90086H   26257.05272812  .00000734  00000-0  58418-3 0  9995
2 59998  82.5311 122.8742 0017072 119.4133 240.8737 13.89842920129815

Acompanhe METEOR 2-20 DEB em tempo real com AllMySat

Download on the App Store